Shelton, WA
on Wednesday, December 5, 2012

Wednesday
Previous Day Next Day
Daily Summary
 ActualAverage (KOLM)Record (KOLM)
Temperature
Mean Temperature °F 39°F  
Max Temperature 46°F 45°F 54°F (1954)
Min Temperature 32°F 33°F 12°F (1994)
Degree Days
Heating Degree Days 26 26  
Month to date heating degree days 128  
Since 1 July heating degree days 1573  
Cooling Degree Days 0 0  
Month to date cooling degree days 0  
Year to date cooling degree days 106  
Moisture
Dew Point 38°F   
Average Humidity 94    
Maximum Humidity 100    
Minimum Humidity 71    
Precipitation
Precipitation 0.11 in 0.27 in 2.18 in (1970)
Month to date precipitation 1.40  
Year to date precipitation 43.94  
Wind
Wind Speed 6 mph   
Max Wind Speed 15 mph   
Max Gust Speed 29 mph   
Visibility 10 miles   
Events Rain   

Key: T is trace of precipitation, MM is missing value
Source: NWS Daily Summary
Time(PST)TemperatureDew PointHumidity Pressure Visibility Wind DirectionWind SpeedGust SpeedPrecipitationEvents Conditions
12:53 AM 41.0°F 37.9°F 89% 29.88 in 10.0 miles SSW 11.5 mph 19.6 mph 0.00 in   Mostly Cloudy
1:53 AM 39.9°F 37.0°F 89% 29.93 in 10.0 miles SW 8.1 mph - N/A   Overcast
2:53 AM 39.9°F 36.0°F 86% 29.98 in 10.0 miles SW 5.8 mph - N/A   Mostly Cloudy
3:23 AM 39.2°F 37.4°F 93% 30.00 in 10.0 miles WSW 15.0 mph 28.8 mph 0.02 in Rain Rain
3:50 AM 37.4°F 37.4°F 100% 30.00 in 10.0 miles SW 4.6 mph - 0.03 in   Overcast
3:53 AM 37.9°F 37.0°F 97% 30.02 in 10.0 miles WSW 5.8 mph - 0.03 in   Overcast
4:53 AM 37.0°F 36.0°F 96% 30.04 in 10.0 miles Calm Calm - 0.00 in   Scattered Clouds
6:53 AM 35.1°F 35.1°F 100% 30.10 in 10.0 miles SSW 3.5 mph - 0.00 in   Clear
7:53 AM 32.0°F 32.0°F 100% 30.13 in 10.0 miles Calm Calm - N/A   Scattered Clouds
8:53 AM 36.0°F 36.0°F 100% 30.14 in 10.0 miles Calm Calm - N/A   Clear
9:53 AM 41.0°F 39.0°F 93% 30.17 in 10.0 miles West 5.8 mph - 0.00 in Rain Light Rain
10:53 AM 43.0°F 39.0°F 86% 30.19 in 10.0 miles SW 4.6 mph - 0.00 in   Partly Cloudy
11:53 AM 46.9°F 39.0°F 74% 30.18 in 10.0 miles SSW 8.1 mph - 0.00 in   Scattered Clouds
12:53 PM 46.9°F 37.9°F 71% 30.17 in 10.0 miles SSW 9.2 mph - N/A   Partly Cloudy
1:53 PM 46.0°F 39.0°F 76% 30.17 in 10.0 miles WNW 15.0 mph - N/A   Overcast
2:12 PM 41.0°F 37.4°F 87% 30.15 in 10.0 miles WNW 5.8 mph - 0.02 in Rain Rain
2:36 PM 41.0°F 39.2°F 93% 30.16 in 10.0 miles West 3.5 mph - 0.02 in Rain Light Rain
2:53 PM 42.1°F 39.0°F 89% 30.18 in 10.0 miles WSW 5.8 mph - 0.03 in Rain Light Rain
3:53 PM 41.0°F 39.0°F 93% 30.19 in 10.0 miles WSW 3.5 mph - 0.01 in   Mostly Cloudy
4:53 PM 37.9°F 37.9°F 100% 30.19 in 9.0 miles Calm Calm - N/A   Partly Cloudy
5:53 PM 37.9°F 37.9°F 100% 30.19 in 9.0 miles Calm Calm - N/A   Overcast
6:33 PM 39.2°F 39.2°F 100% 30.18 in 10.0 miles Calm Calm - 0.00 in   Overcast
6:53 PM 39.0°F 39.0°F 100% 30.19 in 10.0 miles Calm Calm - 0.01 in Rain Light Rain
7:27 PM 37.4°F 37.4°F 100% 30.19 in 10.0 miles West 3.5 mph - 0.00 in Rain Light Rain
7:40 PM 39.2°F 39.2°F 100% 30.18 in 10.0 miles Calm Calm - 0.02 in Rain Light Rain
7:53 PM 39.9°F 39.0°F 97% 30.20 in 10.0 miles Calm Calm - 0.02 in Rain Light Rain
8:40 PM 39.2°F 39.2°F 100% 30.18 in 10.0 miles Calm Calm - 0.00 in   Overcast
8:53 PM 39.0°F 39.0°F 100% 30.19 in 10.0 miles Calm Calm - 0.00 in Rain Light Rain
9:21 PM 39.2°F 39.2°F 100% 30.18 in 10.0 miles WSW 3.5 mph - 0.01 in   Overcast
9:43 PM 39.2°F 39.2°F 100% 30.17 in 10.0 miles SW 3.5 mph - 0.01 in Rain Light Rain
9:53 PM 39.9°F 39.0°F 97% 30.19 in 10.0 miles SW 3.5 mph - 0.01 in   Overcast
10:53 PM 39.9°F 39.0°F 97% 30.18 in 10.0 miles Calm Calm - 0.00 in   Overcast
11:53 PM 39.9°F 39.0°F 97% 30.18 in 10.0 miles Calm Calm - N/A   Overcast
Moon Phase
Dec. 05 Dec. 06 Dec. 13 Dec. 20 Dec. 28
Sunrise:07:43 AM (PST) Moon Rise:11:39 PM (PST)12/5
Sunset:04:22 PM (PST) Moon Set:11:51 AM (PST)12/5

Copyright © 2014 The Weather Underground, Inc.